Погода в Лас-Росасе-де-Мадриде

Испания     40°29′35″N   3°52′37″W
темп.,
°C
ветер,
м/с
пор.,
м/с
влажн.,
%
обл.,
%
осадки,
мм/ч
давл.,
гПа
погр.,
м
16 июня, ср
ср1623:00+26юв71232100 0.0 1013799
02:00+22всв235456 1.6 1014213
05:00+20всв4657100 1.5 1013401
08:00+20св235639 2.4 1013354
11:00+23в2248100 0.3 1013888
14:00+26ю35380 0.4 10121689
17:00+28ююз48310 0.0 10092483
20:00+29юз5102313 0.0 10073345
17 июня, чт
чт1723:00+25зсз3729100 0.1 1009864
02:00+23ю123262 0.1 100999
05:00+20ююз5839100 0.0 1010722
08:00+16ююв4672100 0.0 1012643
11:00+18ю4661100 0.1 10121092
14:00+20ююз355092 0.1 10111476
17:00+24юз67357 0.0 10092236
20:00+23юз783682 0.0 10091810
18 июня, пт
пт1823:00+20юз354490 0.0 1012428
02:00+19юз124976 0.0 1012205
05:00+18ююв115567 0.0 1012162
08:00+19в23539 0.0 1012464
11:00+22вюв4545100 0.0 10131398
14:00+25ююв6932100 0.0 10112776
17:00+25юз7835100 0.0 10101802
20:00+24юз5637100 0.0 10101188
19 июня, сб
сб1923:00+19юз3460100 0.3 1013307
02:00+18ю2166100 0.9 1014314
05:00+17з117388 1.1 1013182
08:00+18юв1169100 2.0 1013258
11:00+20ююв2358100 0.9 10131104
14:00+22ююз5943100 1.5 10132282
17:00+24юз6822100 0.0 10102447
20:00+23юз8830100 0.0 10102402
20 июня, вс
вс2023:00+19зюз47431 0.0 1012832
02:00+16юз475885 0.0 1013460
05:00+15юз356657 0.0 1013271
08:00+14юз35745 0.0 1014336
11:00+17юз555530 0.0 1014908
14:00+22юз673718 0.0 10131307
17:00+24юз99362 0.0 10111687
20:00+22юз88392 0.0 10111501